User: anonymous   Login
Location: Unspecified
(58.9933°N, 5.6375°E)
Time: 14:06:15
(UTC+02:00)
Language:

Cosmos 2058 - Orbit

View from above orbital plane
View from above orbital plane
View from above satellite
View from above satellite

Ground track
Ground track

The orbit data is extracted from the following two-line orbital elements,

1 20465U 90010A   18141.83326335 +.00000202 +00000-0 +14908-4 0  9995
2 20465 082.4887 282.1952 0014335 230.3585 129.6374 14.97719568514916
Epoch (UTC): 21 May 2018 19:59:53
Eccentricity: 0.0014335
inclination: 82.4887°
perigee height: 564 km
apogee height: 584 km
right ascension of ascending node: 282.1952°
argument of perigee: 230.3585°
revolutions per day: 14.97719568
mean anomaly at epoch: 129.6374°
orbit number at epoch: 51491

The dashed part of the orbit path shows where the satellite is in the earth's shadow,  

DLR